Location: Asheville, NC
(35.6000°N, 82.5500°W)
Time: 07:33:52
(UTC-04:00)

LilacSat-2 - Pass Details

Date: 08 January 2018
Orbit: 514 x 537 km, 97.5° (Epoch: 19 June)

Event Time Altitude Azimuth Distance (km) Brightness Sun altitude
Rises 05:23:12 0° 38° (NE) 2,665 ? -27.3°
Reaches altitude 10° 05:26:53 10° 75° (ENE) 1,762 ? -26.5°
Maximum altitude 05:27:57 11° 92° (E) 1,696 ? -26.3°
Drops below altitude 10° 05:29:02 10° 109° (ESE) 1,754 ? -26.1°
Sets 05:32:39 0° 146° (SE) 2,628 ? -25.4°
